Simultaneous Nadir Overpasses (SNOs) Predictions

Prediction of SNOs between AURA and NPP Satellite Orbit:

Table of predicted SNOs for the next 14.0 days since TLE Epoch: 11/4/2022
Index Date (AURA) Time (AURA) Lat,Lon (AURA) SZA (AURA ) Date (NPP) Time (NPP) Lat,Lon (NPP) SZA (NPP ) Distance(km) Time Diff (sec)
1 11/06/2022 19:09:09 79.33, 148.60 107.72 11/06/2022 19:08:43 79.33, 148.55 107.75 0.96 26
2 11/06/2022 19:58:28 -79.63, -41.64 72.69 11/06/2022 19:59:19 -79.64, -41.58 72.74 1.28 51
3 11/09/2022 11:25:34 79.45, -94.72 108.34 11/09/2022 11:25:33 79.45, -94.71 108.34 0.25 1
4 11/09/2022 12:13:16 -81.81, 110.31 77.02 11/09/2022 12:14:29 -81.29, 110.63 77.36 58.26 73
5 11/12/2022 02:52:41 -79.22,-147.96 70.64 11/12/2022 02:51:49 -79.21,-148.06 70.58 2.26 52
6 11/12/2022 03:41:58 79.56, 21.94 108.93 11/12/2022 03:42:23 79.56, 22.00 108.90 1.13 25
7 11/14/2022 19:09:03 -79.33, -31.34 70.07 11/14/2022 19:08:38 -79.33, -31.42 70.04 1.85 25
8 11/14/2022 19:58:21 79.62, 138.33 109.55 11/14/2022 19:59:13 79.63, 138.41 109.50 1.80 52
9 11/17/2022 10:36:40 77.67, -91.87 112.61 11/17/2022 10:35:26 77.80, -92.37 112.74 18.53 74



Historial Predications of SNOs between AURA and NPP
